Weather History for West Palm Beach, FL

Change the Weather History Date:

Saturday, November 10, 2012

  Actual Average Record
Temperature  
Mean Temperature 74 °F 74 °F  
Max Temperature 77 °F 81 °F 88 °F (1987)
Min Temperature 71 °F 66 °F 46 °F (1991)
Degree Days  
Heating Degree Days 0 0  
Month to date heating degree days 4 0  
Since 1 July heating degree days 9 1  
Cooling Degree Days 9 9  
Month to date cooling degree days 46 95  
Year to date cooling degree days 3897 3716  
Growing Degree Days 24 (Base 50)    
Moisture  
Dew Point 52 °F    
Average Humidity 48    
Maximum Humidity 53    
Minimum Humidity 43    
Precipitation  
Precipitation T in 0.18 in 1.45 in (1904)
Month to date precipitation T 1.74  
Year to date precipitation 76.85 55.94  
Snow  
Snow 0.00 in - - ()
Month to date snowfall 0.0  
Since 1 July snowfall 0.0  
Since 1 September snowfall 0.0  
Snow Depth 0.00 in    
Sea Level Pressure  
Sea Level Pressure 30.21 in    
Wind  
Wind Speed 11 mph (ENE)    
Max Wind Speed 21 mph    
Max Gust Speed 25 mph    
Visibility 10 miles    
Events      
T = Trace of Precipitation, MM = Missing Value Source: NWS Daily Summary

Daily Weather History Graph

Daily Weather History Graph

Search for Another Location

Airport:

Trip Planner

Search our weather history database for the weather conditions in past years. The results will help you decide how hot, cold, wet, or windy it might be!

Date:

Astronomy

Nov. 10, 2012 Rise Set
Actual Time 6:36 AM EST 5:31 PM EST
Civil Twilight 6:12 AM EST 5:56 PM EST
Nautical Twilight 5:44 AM EST 6:24 PM EST
Astronomical Twilight 5:16 AM EST 6:51 PM EST
Moon 2:58 AM EST (11/10) 3:02 PM EST (11/10)
Length of Visible Light 11h 44m
Length of Day
10h 55m
Waning Crescent, 14% of the Moon is Illuminated
Nov 10
Waning Crescent
Nov 13
New
Nov 20
First Quarter
Nov 28
Full
Dec 6
Last Quarter

Hourly Weather History & Observations

Time (EST) Temp. Dew Point Humidity Pressure Visibility Wind Dir Wind Speed Gust Speed Precip Events Conditions
12:53 AM 71.1 °F 50.0 °F 47% 30.18 in 10.0 mi ENE 6.9 mph - N/A   Mostly Cloudy
1:53 AM 71.1 °F 50.0 °F 47% 30.17 in 10.0 mi East 11.5 mph - N/A   Mostly Cloudy
2:53 AM 71.1 °F 50.0 °F 47% 30.17 in 10.0 mi East 8.1 mph - N/A   Mostly Cloudy
3:53 AM 71.1 °F 52.0 °F 51% 30.17 in 10.0 mi East 6.9 mph - N/A   Mostly Cloudy
4:53 AM 71.1 °F 51.1 °F 49% 30.19 in 10.0 mi NNE 8.1 mph - N/A   Mostly Cloudy
5:53 AM 71.1 °F 48.9 °F 45% 30.20 in 10.0 mi North 4.6 mph - N/A   Mostly Cloudy
6:53 AM 72.0 °F 48.9 °F 44% 30.21 in 10.0 mi ENE 8.1 mph - N/A   Mostly Cloudy
7:53 AM 73.0 °F 52.0 °F 48% 30.23 in 10.0 mi ENE 8.1 mph 20.7 mph N/A   Mostly Cloudy
8:53 AM 73.0 °F 52.0 °F 48% 30.25 in 10.0 mi ENE 12.7 mph - N/A   Mostly Cloudy
9:53 AM 73.9 °F 53.1 °F 48% 30.26 in 10.0 mi ENE 9.2 mph - N/A   Mostly Cloudy
10:53 AM 75.9 °F 52.0 °F 43% 30.26 in 10.0 mi ENE 12.7 mph - N/A   Mostly Cloudy
11:53 AM 75.0 °F 53.1 °F 46% 30.25 in 10.0 mi ENE 9.2 mph - N/A   Mostly Cloudy
12:53 PM 73.9 °F 55.9 °F 53% 30.22 in 10.0 mi NNE 9.2 mph - N/A   Mostly Cloudy
1:53 PM 75.9 °F 55.0 °F 48% 30.20 in 10.0 mi East 12.7 mph - 0.00 in   Mostly Cloudy
2:53 PM 75.9 °F 52.0 °F 43% 30.20 in 10.0 mi ENE 12.7 mph 23.0 mph N/A   Mostly Cloudy
3:53 PM 75.0 °F 55.0 °F 50% 30.20 in 10.0 mi ENE 16.1 mph - N/A   Mostly Cloudy
4:53 PM 73.0 °F 53.1 °F 49% 30.20 in 10.0 mi East 11.5 mph 21.9 mph N/A   Mostly Cloudy
5:53 PM 73.0 °F 51.1 °F 46% 30.22 in 10.0 mi ENE 16.1 mph - N/A   Mostly Cloudy
6:53 PM 73.0 °F 54.0 °F 51% 30.22 in 10.0 mi ENE 12.7 mph 21.9 mph N/A   Mostly Cloudy
7:53 PM 73.0 °F 52.0 °F 48% 30.23 in 10.0 mi East 15.0 mph - N/A   Scattered Clouds
8:53 PM 73.0 °F 55.9 °F 55% 30.24 in 10.0 mi ENE 13.8 mph - N/A   Mostly Cloudy
9:53 PM 73.9 °F 53.1 °F 48% 30.24 in 10.0 mi East 15.0 mph 24.2 mph N/A   Mostly Cloudy
10:53 PM 73.0 °F 53.1 °F 49% 30.24 in 10.0 mi East 9.2 mph - N/A   Mostly Cloudy
11:53 PM 73.0 °F 57.0 °F 57% 30.23 in 10.0 mi ENE 11.5 mph 23.0 mph N/A   Mostly Cloudy